Home   Weather   Verona   Past weeks

Flag for Italy Past Weather in Verona, Italy — Yesterday and Last 2 Weeks

Now
57 °F

Clear.


Feels Like: 57 °F
Forecast: 51 / 75 °F
Wind: 5 mph from North

Location: Verona / Villafranca

Current Time: Sep 26, 2016 at 2:17:58 AM

Latest Report: Sep 26, 2016 at 1:50 AM


Visibility: 10 mi

Pressure: 30.09 "Hg

Humidity: 82%

Dew Point: 52 °F

Location of VeronaLocation

Past Weather in Verona — Graph

°F

Verona Temperature Yesterday

Maximum temperature yesterday: 77 °F (at 4:20 PM)
Minimum temperature yesterday: 52 °F (at 6:20 AM)
Average temperature yesterday: 64 °F

High & Low Weather Summary for the Past Weeks

 TemperatureHumidityPressure
High90 °F (Sep 13, 3:50 PM)100% (Sep 16, 7:20 PM)30.33 "Hg (Sep 16, 7:20 PM)
Low52 °F (Sep 23, 6:20 AM)33% (Sep 13, 6:20 PM)29.77 "Hg (Sep 17, 2:20 AM)
Average68 °F70%30.01 "Hg
* Reported Sep 11 12:20 AM — Sep 26 12:50 AM, Verona, Weather by CustomWeather, © 2016

Note: Actual official high and low records may vary slightly from our data, if they occured in-between our weather recording intervals... More about our weather records

Advertising

Verona Weather History for the Previous 24 Hours

Scroll right to see more
 ConditionsComfort  
Time TempWeatherWind HumidityBarometerVisibility
12:50 AM
Mon, Sep 26
59 °FClear.3 mph77%30.09 "Hg10 mi
12:20 AM59 °FClear.3 mph82%30.09 "Hg10 mi
11:50 PM
Sun, Sep 25
57 °FClear.5 mph88%30.09 "Hg10 mi
11:20 PM59 °FClear.5 mph82%30.09 "Hg10 mi
10:50 PM61 °FClear.3 mph77%30.09 "Hg10 mi
10:20 PM61 °FClear.5 mph77%30.09 "Hg10 mi
9:50 PM61 °FClear.5 mph77%30.09 "Hg10 mi
9:20 PM61 °FClear.5 mph83%30.07 "Hg10 mi
8:50 PM61 °FClear.5 mph77%30.07 "Hg10 mi
8:20 PM64 °FClear.2 mph73%30.07 "Hg10 mi
7:50 PM66 °FClear.1 mph68%30.07 "Hg10 mi
7:20 PM70 °FClear.3 mph57%30.07 "Hg10 mi
6:50 PM72 °FSunny.5 mph53%30.07 "Hg10 mi
6:20 PM73 °FSunny.5 mph50%30.07 "Hg10 mi
5:50 PM75 °FSunny.7 mph47%30.07 "Hg10 mi
5:20 PM75 °FSunny.6 mph44%30.07 "Hg10 mi
4:50 PM75 °FPassing clouds.7 mph44%30.07 "HgN/A
4:20 PM77 °FPassing clouds.5 mph44%30.07 "HgN/A
3:50 PM75 °FPassing clouds.8 mph47%30.07 "HgN/A
3:20 PM75 °FPassing clouds.7 mph44%30.07 "HgN/A
2:50 PM75 °FSunny.5 mph44%30.09 "Hg10 mi
2:20 PM75 °FPassing clouds.3 mph44%30.09 "HgN/A
1:50 PM75 °FSunny.5 mph47%30.12 "Hg10 mi
1:20 PM73 °FPassing clouds.6 mph47%30.12 "HgN/A
12:50 PM73 °FSunny.7 mph47%30.15 "Hg10 mi
12:20 PM72 °FSunny.3 mph57%30.15 "Hg10 mi
11:50 AM70 °FSunny.2 mph60%30.15 "Hg10 mi
11:20 AM68 °FSunny.2 mph64%30.15 "Hg10 mi
10:50 AM66 °FSunny.2 mph64%30.18 "Hg10 mi
10:20 AM64 °FPassing clouds.3 mph68%30.18 "HgN/A
9:50 AM63 °FPassing clouds.3 mph73%30.18 "HgN/A
9:20 AM61 °FSunny.2 mph77%30.18 "Hg10 mi
8:50 AM63 °FSunny.No wind68%30.18 "Hg10 mi
8:20 AM55 °FSunny.3 mph88%30.18 "Hg10 mi
7:50 AM52 °FSunny.5 mph94%30.18 "Hg10 mi
7:20 AM52 °FSunny.2 mph94%30.18 "Hg10 mi
6:50 AM54 °FClear.2 mph88%30.18 "Hg10 mi
6:20 AM52 °FClear.2 mph94%30.18 "Hg10 mi
5:50 AM54 °FClear.2 mph88%30.18 "Hg10 mi
5:20 AM54 °FClear.3 mph88%30.18 "Hg10 mi
4:50 AM54 °FClear.3 mph88%30.18 "Hg10 mi
2:20 AM54 °FClear.1 mph88%30.24 "Hg10 mi
Weather by CustomWeather, © 2016

See weather overviewHow to use our weather pages